Wind_Speed
19 19 20 21 22 22 22 22 21 21 20 19 18 17 16 15 14 14 14 15 15 15 15 15 15 15 15 15 16 16 17 19 19 19 19 19 20 20 21 22 22 22 22
20 20 20 21 21 21 22 22 23 22 22 21 20 19 18 17 16 15 15 15 16 16 16 16 16 16 16 16 17 18 19 20 20 20 20 20 21 21 22 22 22 22 22
22 22 22 21 21 22 22 23 23 23 23 23 22 21 20 18 17 16 16 16 16 17 17 17 17 17 17 17 18 19 19 20 20 21 21 21 22 21 22 22 22 22 23
23 23 23 23 23 23 23 23 23 23 23 23 23 22 21 20 19 18 17 17 18 18 18 18 18 18 18 19 19 20 20 20 21 21 22 22 22 22 22 23 23 23 23
23 23 24 24 24 24 24 24 24 24 24 23 23 23 22 21 20 19 19 18 19 19 19 19 19 19 19 19 19 20 20 20 21 21 21 21 22 22 23 24 24 24 24
23 23 24 25 25 25 25 25 25 24 24 24 24 23 22 22 21 20 20 20 20 20 20 20 20 20 20 20 20 20 20 21 21 22 23 24 24 25 25 25 25 25 25
23 23 24 25 25 26 26 26 26 26 26 25 25 24 24 23 22 22 21 21 21 20 20 20 20 20 20 20 20 21 21 21 22 22 22 23 24 24 25 25 26 25 25
25 25 26 25 25 26 26 27 27 27 27 26 26 26 25 24 24 23 22 22 21 21 21 20 20 20 20 21 21 21 21 21 22 23 23 25 25 25 26 26 25 25 25
27 27 27 27 27 27 27 27 27 27 27 27 27 26 26 25 24 24 23 23 22 22 22 21 21 21 21 21 21 21 21 22 23 24 25 27 27 27 27 27 27 27 27
30 29 29 29 29 28 28 27 27 27 26 26 26 26 25 25 25 25 24 24 23 22 22 22 21 22 22 22 22 22 23 24 25 26 28 29 30 30 30 30 29 29 29
32 32 31 31 31 30 29 29 28 28 27 26 26 26 25 25 25 25 25 25 24 24 23 23 23 23 23 23 24 24 25 26 27 28 29 30 29 30 30 30 30 30 30
33 33 33 32 32 31 31 30 30 29 28 27 26 25 25 24 24 25 26 26 26 26 25 25 25 25 25 26 26 27 27 28 28 27 29 28 28 28 29 29 29 29 29
33 33 34 33 33 33 32 32 31 31 30 29 28 27 25 25 25 25 26 27 27 27 27 27 27 27 27 28 28 28 29 29 29 28 28 28 28 27 27 27 28 28 29
32 33 34 34 34 34 34 33 32 32 31 31 29 29 28 27 26 25 26 27 28 29 29 30 30 30 30 30 30 30 30 30 30 29 29 29 28 28 28 29 29 30 31
32 32 33 35 35 35 35 34 34 33 32 32 31 31 30 29 28 28 27 27 29 30 31 32 32 33 32 32 32 32 32 32 32 31 31 31 30 30 30 31 32 33 33
33 32 32 34 35 35 36 36 36 35 34 33 33 32 32 31 31 30 29 29 29 31 32 33 34 35 35 34 34 34 34 34 34 33 33 33 33 32 33 33 34 35 36
33 33 33 34 35 35 36 36 37 37 36 35 34 34 34 33 33 32 31 31 31 32 33 35 36 36 36 36 36 36 36 36 36 35 34 34 34 35 35 36 37 37 38
33 35 35 35 35 35 36 36 37 37 38 37 36 36 36 35 35 35 34 33 33 34 35 36 37 37 38 37 37 37 37 38 37 37 36 36 36 37 38 39 40 40 42
35 36 37 36 36 37 37 37 37 38 38 38 37 37 37 37 37 37 36 35 35 36 37 38 38 38 39 39 39 39 39 39 39 39 39 39 39 40 41 42 43 44 45
38 39 40 39 38 39 39 39 38 38 38 38 37 37 37 38 39 39 39 38 37 37 38 39 40 40 39 40 40 40 41 41 41 42 42 42 43 44 45 45 46 47 48
40 41 43 43 41 42 43 41 40 39 39 39 38 37 38 38 39 39 39 39 39 39 39 40 40 41 41 41 41 42 43 43 44 45 45 46 46 46 47 48 49 50 52
42 43 44 45 45 45 45 44 43 42 40 39 39 38 38 39 39 39 39 40 40 39 40 40 41 41 42 43 43 44 45 45 45 46 47 48 49 49 50 51 52 53 55
45 46 46 47 47 47 47 47 45 44 42 40 40 40 40 40 40 40 40 41 40 40 41 41 41 41 42 44 45 46 47 48 48 47 48 49 50 51 52 53 55 57 58
49 49 49 49 50 50 50 48 47 45 44 42 41 41 41 41 41 41 41 41 41 41 42 42 42 42 43 44 46 48 49 50 50 50 50 51 51 52 53 55 56 58 61
53 53 52 51 51 52 51 49 49 48 46 44 43 42 41 41 42 42 42 42 42 42 42 42 43 43 44 45 47 48 49 51 52 52 52 52 53 54 55 57 58 60 62
56 55 54 54 53 52 51 50 50 49 48 46 44 43 42 42 42 42 42 42 42 42 42 43 43 44 45 47 48 49 50 51 53 53 54 54 54 55 57 59 61 63 64
Wind_Direction
251 251 251 253 255 256 257 257 258 260 263 265 268 270 271 269 267 264 261 258 257 257 257 258 261 264 268 270 273 276 277 278 280 282 284 285 286 285 285 284 283 284 286
250 250 250 251 253 255 255 256 257 258 260 263 266 268 270 270 269 267 264 262 260 260 259 259 260 262 264 267 270 272 275 278 281 283 284 286 287 287 287 286 285 286 287
250 250 251 252 253 254 255 255 256 257 258 259 262 265 267 267 267 265 265 264 263 262 261 262 263 265 266 268 270 273 275 278 281 283 284 285 286 287 288 288 287 287 287
253 253 253 254 255 255 255 255 255 256 256 257 259 261 263 264 263 262 262 263 264 264 264 265 267 269 271 273 275 277 279 281 283 283 283 283 284 284 285 285 285 285 286
256 257 257 257 257 256 256 255 255 255 255 256 257 258 259 260 259 259 260 262 263 264 266 267 270 273 275 277 279 280 281 282 283 282 282 282 282 283 284 284 284 285 285
257 259 259 259 259 259 258 258 257 256 255 255 256 256 257 258 258 257 258 260 261 263 265 267 270 273 275 277 278 279 280 281 281 281 281 282 283 284 284 284 285 285 285
257 259 261 261 262 262 262 262 261 259 257 256 256 256 257 257 257 257 257 259 260 262 263 265 268 270 272 274 275 277 278 280 282 283 285 285 285 285 285 285 285 285 285
256 258 261 263 264 264 265 265 265 264 262 260 258 258 258 259 258 258 258 258 260 261 262 264 266 268 270 272 275 277 279 282 283 284 285 284 285 285 285 285 284 284 284
255 257 261 263 265 266 268 269 270 269 269 267 265 263 262 262 261 261 260 260 260 261 262 263 265 267 269 271 274 277 279 281 282 284 285 284 285 284 284 283 283 283 283
257 257 260 264 267 269 271 272 274 274 273 272 270 269 268 267 266 265 263 262 261 261 261 262 264 266 268 271 275 278 281 282 283 285 284 283 283 283 282 281 281 281 282
258 259 260 264 267 270 272 273 275 276 276 274 272 271 271 270 270 268 266 264 262 262 261 262 263 266 269 273 276 279 282 285 286 287 285 283 283 282 280 280 280 281 281
259 260 261 263 266 268 271 273 274 276 276 275 273 272 272 271 272 271 268 265 263 262 261 262 263 266 270 274 278 281 284 286 287 287 285 285 284 282 281 282 282 283 283
260 262 263 263 264 266 268 270 273 275 276 275 273 272 272 271 271 271 270 266 263 262 262 262 263 266 270 274 278 282 284 286 287 287 285 286 285 284 283 284 285 286 286
261 263 264 264 263 264 265 268 270 272 274 274 273 272 272 271 272 272 271 268 265 264 263 263 264 266 269 273 277 280 282 284 286 286 286 285 285 284 284 285 286 287 289
262 261 262 263 264 264 265 266 267 269 272 272 272 272 272 272 273 274 273 270 267 265 265 266 266 267 269 272 276 280 282 283 285 285 285 284 284 285 286 287 288 289 290
261 261 260 262 264 264 265 265 266 267 269 270 271 272 272 273 274 276 276 274 272 269 268 268 268 269 270 272 275 279 281 283 284 285 285 284 284 285 287 288 289 290 291
260 261 260 261 263 265 265 265 265 266 267 268 269 270 271 272 273 276 277 276 275 273 271 270 270 271 272 273 276 278 281 283 285 286 286 285 286 287 288 289 290 291 292
258 260 262 261 263 265 266 266 266 266 267 268 269 270 270 271 272 274 276 276 276 275 274 273 271 272 273 275 276 278 281 284 286 288 288 287 287 288 289 290 291 292 293
258 260 262 263 263 265 266 267 267 267 267 268 269 270 271 271 272 274 276 277 277 276 276 275 274 273 274 276 277 279 281 283 286 288 288 288 288 289 290 291 292 293 293
259 259 261 262 263 264 265 266 267 268 268 268 268 269 270 271 273 275 276 278 278 278 277 276 275 274 274 276 278 279 281 284 286 288 289 289 290 290 291 292 292 293 293
259 259 259 260 260 261 263 264 266 266 267 267 268 269 270 271 273 275 277 278 279 279 278 277 277 276 275 277 279 281 283 285 287 288 289 290 290 291 292 293 293 293 294
261 260 259 259 258 258 260 261 261 263 265 267 267 269 270 272 273 275 278 279 279 279 280 279 279 278 278 279 281 282 284 286 288 290 290 291 291 292 293 293 294 294 295
262 261 260 258 257 256 256 257 258 261 263 265 267 268 269 270 272 275 278 280 280 280 280 280 280 279 280 281 282 285 286 287 288 289 290 291 292 294 294 295 296 296 296
261 261 260 258 256 255 255 255 255 257 260 262 263 265 267 270 273 275 278 280 280 280 281 282 282 281 282 283 285 286 288 289 290 290 291 291 292 293 294 295 296 297 298
260 259 258 258 256 254 254 253 252 253 256 258 261 263 266 268 271 274 277 279 280 280 281 282 283 283 284 285 286 288 289 290 291 291 292 293 294 295 296 297 297 297 297
259 258 257 256 255 254 252 251 250 251 253 255 258 260 263 266 269 273 276 278 280 280 282 283 284 285 286 288 288 289 290 291 291 292 293 293 295 296 297 298 298 298 298
Height
5855 5855 5856 5857 5858 5859 5860 5861 5862 5862 5863 5863 5863 5864 5864 5864 5864 5863 5864 5864 5864 5865 5865 5865 5865 5865 5866 5865 5865 5865 5865 5864 5864 5864 5864 5864 5863 5863 5862 5862 5862 5862 5862
5852 5852 5853 5854 5855 5856 5857 5858 5859 5860 5860 5861 5861 5861 5861 5861 5861 5861 5861 5862 5862 5862 5862 5863 5863 5863 5863 5863 5863 5862 5862 5862 5862 5861 5861 5861 5860 5859 5859 5859 5859 5858 5858
5849 5850 5851 5852 5852 5853 5854 5855 5856 5857 5858 5858 5859 5859 5859 5859 5859 5859 5859 5859 5859 5860 5860 5860 5860 5860 5860 5860 5860 5859 5859 5859 5859 5858 5858 5858 5857 5856 5856 5855 5855 5855 5855
5846 5847 5848 5849 5850 5850 5851 5852 5852 5853 5854 5855 5856 5856 5856 5856 5856 5856 5856 5856 5856 5857 5857 5857 5857 5857 5857 5857 5857 5856 5856 5856 5855 5855 5855 5854 5853 5853 5852 5852 5851 5851 5851
5843 5844 5845 5846 5846 5847 5848 5848 5849 5850 5851 5851 5852 5852 5853 5853 5853 5853 5853 5853 5853 5853 5854 5854 5854 5854 5854 5854 5853 5853 5853 5852 5852 5851 5851 5850 5849 5849 5848 5848 5847 5847 5846
5839 5840 5841 5842 5843 5844 5844 5845 5845 5846 5847 5847 5848 5848 5849 5849 5849 5849 5849 5849 5850 5850 5850 5850 5851 5851 5850 5850 5850 5849 5849 5848 5848 5847 5847 5846 5845 5845 5844 5843 5843 5842 5842
5836 5837 5837 5838 5839 5840 5840 5841 5842 5842 5843 5843 5844 5844 5845 5845 5845 5845 5845 5846 5846 5846 5847 5847 5847 5847 5847 5846 5846 5845 5845 5844 5844 5843 5843 5842 5841 5841 5840 5839 5838 5837 5837
5832 5833 5833 5834 5835 5836 5836 5837 5837 5838 5839 5839 5840 5840 5840 5841 5841 5841 5842 5842 5842 5843 5843 5843 5843 5843 5843 5842 5842 5842 5841 5841 5840 5840 5839 5838 5837 5836 5835 5835 5834 5833 5832
5827 5829 5829 5830 5831 5832 5832 5833 5833 5834 5835 5835 5836 5836 5836 5837 5837 5837 5838 5838 5838 5839 5839 5839 5839 5839 5839 5839 5838 5838 5838 5837 5837 5836 5835 5833 5833 5831 5831 5830 5829 5828 5827
5822 5824 5825 5826 5827 5828 5829 5829 5830 5830 5831 5831 5831 5832 5832 5832 5833 5833 5833 5834 5834 5835 5835 5835 5835 5835 5835 5835 5835 5834 5834 5833 5832 5832 5830 5829 5827 5826 5825 5824 5823 5822 5821
5817 5819 5820 5822 5823 5824 5825 5825 5825 5826 5826 5827 5827 5828 5828 5828 5829 5829 5829 5830 5830 5831 5831 5831 5831 5831 5831 5831 5831 5830 5829 5828 5828 5827 5824 5823 5822 5821 5819 5818 5817 5816 5815
5811 5813 5815 5817 5818 5819 5820 5820 5821 5821 5822 5823 5823 5823 5824 5824 5824 5824 5825 5825 5826 5826 5826 5827 5827 5827 5827 5826 5826 5825 5824 5823 5822 5821 5818 5817 5816 5815 5813 5812 5811 5810 5809
5805 5807 5809 5811 5812 5813 5815 5816 5816 5817 5817 5818 5818 5819 5819 5819 5820 5820 5820 5820 5820 5821 5821 5822 5822 5822 5822 5821 5821 5820 5819 5818 5817 5816 5813 5812 5811 5809 5808 5806 5805 5804 5803
5800 5801 5803 5804 5806 5807 5809 5810 5811 5812 5812 5813 5813 5814 5814 5814 5814 5814 5815 5815 5815 5815 5816 5816 5816 5816 5816 5815 5815 5814 5813 5812 5811 5810 5808 5806 5805 5803 5802 5801 5799 5798 5796
5793 5796 5796 5797 5799 5800 5802 5803 5805 5806 5807 5807 5808 5808 5809 5809 5809 5809 5809 5809 5809 5810 5810 5810 5810 5810 5810 5809 5809 5808 5807 5805 5804 5804 5801 5800 5798 5797 5795 5794 5792 5791 5789
5787 5788 5791 5791 5792 5793 5795 5797 5798 5799 5800 5801 5802 5802 5803 5803 5803 5804 5804 5804 5803 5803 5803 5803 5804 5804 5803 5803 5802 5801 5799 5798 5797 5796 5795 5792 5791 5789 5788 5786 5785 5783 5781
5781 5782 5784 5785 5786 5787 5788 5790 5791 5792 5794 5795 5796 5796 5796 5797 5797 5797 5797 5797 5797 5797 5797 5797 5797 5796 5796 5796 5795 5794 5792 5791 5789 5788 5787 5785 5783 5781 5779 5778 5776 5774 5772
5775 5775 5776 5779 5780 5781 5782 5783 5784 5785 5787 5788 5789 5789 5790 5790 5790 5790 5791 5791 5791 5790 5790 5790 5789 5789 5789 5788 5787 5786 5785 5783 5781 5780 5779 5777 5775 5773 5771 5769 5767 5765 5762
5768 5769 5769 5771 5774 5774 5775 5776 5777 5778 5779 5781 5782 5783 5783 5783 5783 5783 5783 5784 5783 5783 5783 5782 5782 5782 5781 5780 5780 5779 5777 5776 5774 5772 5770 5768 5766 5764 5762 5760 5757 5754 5752
5760 5761 5762 5764 5766 5767 5768 5769 5770 5771 5772 5773 5775 5776 5776 5776 5777 5776 5776 5776 5776 5776 5775 5774 5774 5773 5773 5772 5771 5770 5769 5767 5765 5763 5761 5759 5756 5754 5751 5749 5746 5743 5740
5751 5753 5754 5755 5758 5759 5760 5762 5763 5764 5764 5765 5767 5769 5769 5769 5769 5769 5769 5769 5768 5768 5767 5766 5765 5765 5764 5763 5762 5761 5760 5758 5756 5753 5751 5749 5746 5744 5740 5737 5734 5731 5728
5742 5743 5744 5745 5748 5750 5751 5753 5755 5755 5756 5758 5760 5761 5762 5762 5762 5761 5761 5761 5761 5760 5759 5758 5758 5756 5755 5754 5753 5752 5750 5749 5746 5743 5740 5737 5734 5732 5729 5725 5721 5718 5714
5731 5732 5734 5735 5737 5739 5741 5743 5745 5747 5748 5750 5752 5753 5754 5754 5754 5754 5754 5753 5753 5752 5751 5750 5749 5748 5747 5745 5743 5742 5740 5738 5736 5734 5730 5727 5723 5719 5715 5711 5707 5703 5699
5719 5721 5722 5724 5726 5728 5730 5733 5736 5738 5740 5742 5743 5744 5745 5746 5746 5746 5746 5745 5745 5744 5743 5742 5740 5739 5738 5736 5734 5731 5729 5726 5723 5722 5719 5715 5712 5708 5703 5699 5694 5689 5683
5705 5707 5710 5712 5714 5716 5719 5724 5727 5729 5731 5733 5735 5736 5737 5738 5738 5738 5738 5737 5737 5736 5735 5733 5732 5730 5728 5726 5724 5721 5718 5715 5711 5709 5707 5703 5699 5694 5690 5685 5680 5675 5670
5690 5693 5696 5698 5701 5704 5708 5712 5716 5719 5722 5724 5726 5727 5729 5730 5730 5730 5730 5729 5728 5727 5726 5724 5722 5721 5718 5716 5713 5710 5707 5704 5700 5696 5694 5691 5687 5683 5677 5670 5665 5659 5654